Regional Weather Roundup
Issued by NWS

Home | Current Version | Previous Version | Graphics & Text | Print | Product List | Glossary Off
Versions: 1 2 3 4 5 6 7 8 9 10 11 12 13 14 15 16 17 18 19 20 21 22 23 24 25 26 27 28 29 30 31 32 33 34 35 36 37 38 39 40 41 42 43 44 45 46 47 48 49 50

000
ASUS43 KTOP 241659
RWRKS

WEATHER ROUNDUP FOR KANSAS
NATIONAL WEATHER SERVICE GOODLAND KS
1200 PM CDT SUN SEP 24 2017

NOTE:  "FAIR" INDICATES FEW OR NO CLOUDS BELOW 12,000 FEET WITH NO
SIGNIFICANT WEATHER AND/OR OBSTRUCTIONS TO VISIBILITY.

KSZ001>006-013>018-027>032-041>047-241800-
NORTHWEST KANSAS

CITY           SKY/WX    TMP DP  RH WIND       PRES   REMARKS
GOODLAND       LGT RAIN  51  50  96 N9        29.99R FOG
HAYS           CLOUDY    67  63  87 SW8       29.96R
HILL CITY      LGT RAIN  65  64  97 SW7       29.97R
RUSSELL        CLOUDY    76  61  59 S8        29.92S
$$

KSZ061>065-074>080-084>089-241800-
SOUTHWEST KANSAS

CITY           SKY/WX    TMP DP  RH WIND       PRES   REMARKS
DODGE CITY     PTSUNNY   65  63  93 E7        29.95F
ELKHART          N/A     65  66 100 SE14        N/A
GARDEN CITY    LGT RAIN  63  61  93 E14       29.93F FOG
GREAT BEND     CLOUDY    76  62  62 S10G18    29.95R
LIBERAL        CLOUDY    66  64  93 SE12      29.93
$$

KSZ066>073-081>083-090>101-241800-
SOUTHEAST KANSAS

CITY           SKY/WX    TMP DP  RH WIND       PRES   REMARKS
CHANUTE        SUNNY     85  70  60 S10       29.99S
COFFEYVILLE    MOSUNNY   86  70  58 S10       29.97S
HUTCHINSON     MOSUNNY   86  64  47 SW22      29.93F
MEDICINE LODGE   N/A     82  64  54 S12G22    29.92S
NEWTON         MOSUNNY   84  65  52 S20G28    29.95F
PARSONS        SUNNY     85  68  56 S10       29.99S
WICHITA INTL   MOSUNNY   86  65  49 S20       29.93F
WICHITA JABRA  MOSUNNY   85  67  54 S18G25    29.94F
WINFIELD       MOSUNNY   85  68  56 S17G24    29.96F
$$

KSZ007>012-019>026-033>040-048>060-102>105-241800-
NORTHEAST KANSAS

CITY           SKY/WX    TMP DP  RH WIND       PRES   REMARKS
CONCORDIA      MOSUNNY   82  66  58 S18G28    29.92F
EMPORIA        MOSUNNY   83  67  58 S14       29.97S
LAWRENCE       SUNNY     86  70  58 S10G20    29.97S
MANHATTAN      MOSUNNY   86  66  51 S16       29.93F
OLATHE IND     SUNNY     84  69  60 S10       30.00R
OLATHE EXE     SUNNY     83  69  62 SW12      29.99S
SALINA         MOSUNNY   87  64  46 S24G37    29.92F
TOPEKA BILLARD MOSUNNY   86  69  56 S12       29.96S
TOPEKA FORBES  SUNNY     86  69  56 S14       29.96F
$$




USA.gov is the U.S. government's official web portal to all federal, state and local government web resources and services.